Location: Emory University Observatory
(33.7903°N, 84.3267°W)
Time: 05:52:16
(UTC-05:00)

Tiangong 1 - Pass Details

Date: 10 October 2017
Orbit: 274 x 300 km, 42.8° (Epoch: 18 December)

Event Time Altitude Azimuth Distance (km) Brightness Sun altitude
Rises 20:39:25 0° 304° (NW) 2,059 5.8 -19.5°
Reaches altitude 10° 20:42:09 10° 334° (NNW) 1,207 4.0 -20.1°
Enters shadow 20:42:51 12° 348° (NNW) 1,085 3.5 -20.2°
